sat.trackr.live / text

‹ back to catalog

STARLINK-34610

NORAD 65034 · 2025-161V

PAYLOAD ACTIVE UNKNOWN

§ Identity

Operator
Country
US
Launch date
2025-07-30
Launch site
AFWTR
Launch vehicle
Mass (kg)
RCS (m²)

Purposes: comms

External: N2YO · Heavens-Above · Gunter

§ Orbital elements

Epoch: 2026-09-20T20:01:57.617760Z

Period
93.85 min
Inclination
53.1597°
Eccentricity
0.0001715
Mean motion
15.34414921 rev/d
Perigee alt
461.5 km
Apogee alt
463.8 km
Semi-major
6,840.8 km
B*
7.4173e-4
RAAN
105.9126°
Arg perigee
89.4922°
Mean anomaly
270.6277°
Rev number
6,413

§ Raw data

STARLINK-346101 65034U 25161V   26263.83469465  .00024779  00000+0  74173-3 0  99902 65034  53.1597 105.9126 0001715  89.4922 270.6277 15.34414921 64131

JSON: /api/v1/satellites/65034 · /tle

For live sub-satellite position, see the globe view (requires WebGL).

§ Visibility from observer

Set your observer location to see the next 7 days of passes ≥ 10°. The values pass through the URL so the page stays shareable.

No JS? Fill the form by hand. The geolocation button needs JavaScript.